EZY4817 LIPZ-EKCH

Flight info

Callsign EZY4817
Flight time 1h 38m
Altitude 38000
Route ROKIB DCT BRENO DCT KONIN DCT KEMES DCT EMBOX/N0449F390 DCT NOBRI/N0446F380 M726 ROSOK Q296 MONAK
Aircraft A20N/M-SDE2E3FGHIRWXY/LB1

Departure

Time 2026-05-07 17:40
Airport Venice Marco Polo Airport (LIPZ)

Arrival

Time 2026-05-07 19:19
Airport Copenhagen Kastrup Airport (EKCH)
Time Latitude Longitude Altitude Speed Heading
2026-05-07 16:54 45.50423 12.34194 21 ft 0 kts 266°
2026-05-07 17:34 45.50424 12.34211 21 ft 2 kts 265°
2026-05-07 17:34 45.50425 12.34234 21 ft 2 kts 264°
2026-05-07 17:34 45.50427 12.34257 21 ft 2 kts 262°
2026-05-07 17:34 45.50430 12.34280 21 ft 2 kts 258°
2026-05-07 17:35 45.50434 12.34303 21 ft 2 kts 252°
2026-05-07 17:35 45.50440 12.34325 22 ft 2 kts 239°
2026-05-07 17:35 45.50451 12.34341 23 ft 2 kts 200°
2026-05-07 17:35 45.50461 12.34344 24 ft 0 kts 179°
2026-05-07 17:36 45.50460 12.34344 24 ft 1 kts 179°
2026-05-07 17:37 45.50432 12.34346 21 ft 7 kts 174°
2026-05-07 17:37 45.50364 12.34351 23 ft 13 kts 176°
2026-05-07 17:37 45.50255 12.34360 20 ft 17 kts 177°
2026-05-07 17:37 45.50129 12.34339 17 ft 19 kts 209°
2026-05-07 17:38 45.50030 12.34218 15 ft 19 kts 222°
2026-05-07 17:38 45.49926 12.34086 14 ft 20 kts 223°
2026-05-07 17:38 45.49826 12.33957 14 ft 19 kts 222°
2026-05-07 17:38 45.49730 12.33835 17 ft 17 kts 220°
2026-05-07 17:39 45.49646 12.33731 18 ft 16 kts 222°
2026-05-07 17:39 45.49564 12.33629 19 ft 15 kts 207°
2026-05-07 17:39 45.49476 12.33653 19 ft 14 kts 136°
2026-05-07 17:39 45.49429 12.33773 16 ft 15 kts 80°
2026-05-07 17:40 45.49499 12.33889 15 ft 23 kts 42°
2026-05-07 17:40 45.49803 12.34281 12 ft 98 kts 41°
2026-05-07 17:40 45.50511 12.35183 38 ft 169 kts 42°
2026-05-07 17:40 45.51441 12.36309 637 ft 178 kts 45°
2026-05-07 17:41 45.52296 12.37555 1436 ft 188 kts 50°
2026-05-07 17:41 45.53266 12.39046 1854 ft 217 kts 49°
2026-05-07 17:41 45.54364 12.40621 2553 ft 230 kts 41°
2026-05-07 17:41 45.55797 12.41621 3417 ft 234 kts
2026-05-07 17:42 45.57359 12.41182 4325 ft 231 kts 325°
2026-05-07 17:42 45.58586 12.39765 5416 ft 226 kts 313°
2026-05-07 17:42 45.59486 12.37952 6380 ft 224 kts 290°
2026-05-07 17:42 45.59851 12.35723 6914 ft 243 kts 276°
2026-05-07 17:43 45.60002 12.33220 7393 ft 261 kts 274°
2026-05-07 17:43 45.60123 12.30603 8155 ft 267 kts 274°
2026-05-07 17:43 45.60258 12.27931 9045 ft 272 kts 274°
2026-05-07 17:43 45.60406 12.25232 9965 ft 274 kts 275°
2026-05-07 17:44 45.60564 12.22448 10494 ft 291 kts 275°
2026-05-07 17:44 45.60738 12.19487 10821 ft 313 kts 275°
2026-05-07 17:44 45.60925 12.16319 11423 ft 326 kts 275°
2026-05-07 17:44 45.61118 12.13066 12250 ft 330 kts 275°
2026-05-07 17:45 45.61313 12.09780 13134 ft 333 kts 275°
2026-05-07 17:45 45.61509 12.06463 14000 ft 337 kts 275°
2026-05-07 17:45 45.61706 12.03111 14770 ft 341 kts 275°
2026-05-07 17:45 45.61908 11.99720 15532 ft 345 kts 276°
2026-05-07 17:46 45.62367 11.96350 16278 ft 349 kts 288°
2026-05-07 17:46 45.63482 11.93256 17039 ft 354 kts 306°
2026-05-07 17:46 45.65248 11.90779 17783 ft 360 kts 320°
2026-05-07 17:46 45.67302 11.88690 18496 ft 364 kts 324°
2026-05-07 17:47 45.69418 11.86664 19125 ft 368 kts 324°
2026-05-07 17:47 45.71560 11.84633 19765 ft 371 kts 326°
2026-05-07 17:47 45.73839 11.82835 20405 ft 377 kts 330°
2026-05-07 17:47 45.76207 11.81176 20988 ft 382 kts 332°
2026-05-07 17:48 45.78621 11.79521 21610 ft 385 kts 332°
2026-05-07 17:48 45.81048 11.77856 22249 ft 388 kts 332°
2026-05-07 17:48 45.83458 11.76196 22848 ft 391 kts 332°
2026-05-07 17:48 45.85927 11.74490 23441 ft 395 kts 332°
2026-05-07 17:49 45.88409 11.72777 23938 ft 398 kts 332°
2026-05-07 17:49 45.90911 11.71051 24437 ft 400 kts 332°
2026-05-07 17:49 45.93498 11.69495 24931 ft 404 kts 338°
2026-05-07 17:49 45.96211 11.68358 25396 ft 408 kts 342°
2026-05-07 17:50 45.98986 11.67419 25868 ft 411 kts 343°
2026-05-07 17:50 46.01799 11.66583 26352 ft 414 kts 344°
2026-05-07 17:50 46.04637 11.65786 26819 ft 416 kts 344°
2026-05-07 17:50 46.07488 11.64990 27246 ft 419 kts 343°
2026-05-07 17:51 46.10360 11.64176 27670 ft 422 kts 343°
2026-05-07 17:51 46.13244 11.63341 28082 ft 424 kts 343°
2026-05-07 17:51 46.16143 11.62488 28501 ft 426 kts 342°
2026-05-07 17:51 46.19056 11.61615 28801 ft 429 kts 342°
2026-05-07 17:52 46.21982 11.60738 29213 ft 430 kts 341°
2026-05-07 17:52 46.24918 11.59857 29589 ft 432 kts 341°
2026-05-07 17:52 46.27875 11.58971 29938 ft 435 kts 341°
2026-05-07 17:52 46.30806 11.58094 30289 ft 436 kts 341°
2026-05-07 17:53 46.33781 11.57203 30650 ft 435 kts 341°
2026-05-07 17:53 46.36743 11.56316 31069 ft 434 kts 341°
2026-05-07 17:53 46.39699 11.55427 31438 ft 434 kts 341°
2026-05-07 17:53 46.42660 11.54535 31718 ft 435 kts 341°
2026-05-07 17:54 46.45623 11.53641 32075 ft 435 kts 341°
2026-05-07 17:54 46.48588 11.52746 32454 ft 434 kts 341°
2026-05-07 17:54 46.51545 11.51852 32822 ft 434 kts 341°
2026-05-07 17:54 46.54498 11.50958 33179 ft 434 kts 341°
2026-05-07 17:55 46.57455 11.50061 33467 ft 434 kts 341°
2026-05-07 17:55 46.60405 11.49168 33864 ft 431 kts 341°
2026-05-07 17:55 46.63344 11.48276 34042 ft 432 kts 341°
2026-05-07 17:55 46.66293 11.47377 34161 ft 435 kts 341°
2026-05-07 17:56 46.69258 11.46470 34394 ft 435 kts 341°
2026-05-07 17:56 46.72225 11.45564 34644 ft 435 kts 341°
2026-05-07 17:56 46.75193 11.44657 34902 ft 436 kts 342°
2026-05-07 17:56 46.78163 11.43734 35114 ft 437 kts 342°
2026-05-07 17:57 46.81140 11.42814 35315 ft 437 kts 342°
2026-05-07 17:57 46.83110 11.42212 35487 ft 437 kts 342°
2026-05-07 17:57 46.87102 11.40996 35785 ft 439 kts 342°
2026-05-07 17:57 46.90091 11.40086 35993 ft 439 kts 342°
2026-05-07 17:58 46.93087 11.39170 36179 ft 440 kts 342°
2026-05-07 17:58 46.96093 11.38270 36367 ft 442 kts 345°
2026-05-07 17:58 46.99130 11.37803 36493 ft 448 kts 352°
2026-05-07 17:58 47.02254 11.37613 36628 ft 450 kts 353°
2026-05-07 17:59 47.05393 11.37516 36883 ft 450 kts 354°
2026-05-07 17:59 47.08531 11.37472 37085 ft 450 kts 354°
2026-05-07 17:59 47.11672 11.37459 37278 ft 451 kts 355°
2026-05-07 17:59 47.14804 11.37453 37450 ft 451 kts 355°
2026-05-07 18:00 47.17952 11.37443 37603 ft 452 kts 355°
2026-05-07 18:00 47.21107 11.37425 37722 ft 453 kts 355°
2026-05-07 18:00 47.24261 11.37402 37970 ft 452 kts 355°
2026-05-07 18:00 47.27418 11.37373 38019 ft 454 kts 355°
2026-05-07 18:01 47.32666 11.37322 38020 ft 453 kts 355°
2026-05-07 18:01 47.39993 11.37250 38021 ft 452 kts 353°
2026-05-07 18:02 47.48418 11.37141 38016 ft 452 kts 355°
2026-05-07 18:03 47.54722 11.37098 38012 ft 453 kts 355°
2026-05-07 18:03 47.61026 11.37049 38029 ft 453 kts 355°
2026-05-07 18:04 47.67289 11.36990 38037 ft 452 kts 355°
2026-05-07 18:04 47.73582 11.36927 38021 ft 452 kts 355°
2026-05-07 18:05 47.79878 11.36864 38021 ft 452 kts 355°
2026-05-07 18:05 47.86162 11.36774 38040 ft 451 kts 354°
2026-05-07 18:06 47.92437 11.36349 38042 ft 450 kts 353°
2026-05-07 18:06 47.98647 11.35782 38047 ft 450 kts 353°
2026-05-07 18:07 48.04902 11.35223 38048 ft 450 kts 353°
2026-05-07 18:07 48.11156 11.34693 38052 ft 450 kts 353°
2026-05-07 18:08 48.17424 11.34173 38044 ft 450 kts 353°
2026-05-07 18:08 48.23686 11.33654 38045 ft 450 kts 353°
2026-05-07 18:09 48.29946 11.33133 38041 ft 450 kts 353°
2026-05-07 18:09 48.36205 11.32609 38039 ft 450 kts 353°
2026-05-07 18:10 48.42467 11.32084 38039 ft 450 kts 353°
2026-05-07 18:10 48.48725 11.31558 38038 ft 450 kts 353°
2026-05-07 18:11 48.54942 11.31033 38047 ft 450 kts 353°
2026-05-07 18:11 48.61205 11.30504 38045 ft 450 kts 353°
2026-05-07 18:12 48.67464 11.29974 38045 ft 450 kts 353°
2026-05-07 18:12 48.73718 11.29443 38045 ft 450 kts 353°
2026-05-07 18:13 48.79968 11.28911 38047 ft 450 kts 353°
2026-05-07 18:13 48.86227 11.28377 38047 ft 450 kts 353°
2026-05-07 18:14 48.92480 11.27842 38047 ft 450 kts 353°
2026-05-07 18:14 48.98737 11.27295 38059 ft 450 kts 353°
2026-05-07 18:15 49.04954 11.26752 38044 ft 450 kts 354°
2026-05-07 18:15 49.11219 11.26223 38043 ft 451 kts 354°
2026-05-07 18:16 49.17479 11.25675 38058 ft 451 kts 353°
2026-05-07 18:16 49.23741 11.25113 38050 ft 451 kts 355°
2026-05-07 18:17 49.30023 11.24568 38046 ft 451 kts 354°
2026-05-07 18:17 49.36304 11.24043 38044 ft 451 kts 352°
2026-05-07 18:18 49.42573 11.23479 38058 ft 451 kts 354°
2026-05-07 18:18 49.48867 11.23353 38050 ft 453 kts 358°
2026-05-07 18:19 49.55131 11.23548 38049 ft 453 kts 359°
2026-05-07 18:19 49.61439 11.23812 38049 ft 453 kts 359°
2026-05-07 18:20 49.67740 11.24088 38049 ft 453 kts 359°
2026-05-07 18:20 49.74047 11.24370 38049 ft 453 kts 359°
2026-05-07 18:21 49.80353 11.24651 38047 ft 453 kts 359°
2026-05-07 18:21 49.86663 11.24927 38048 ft 453 kts 359°
2026-05-07 18:22 49.92929 11.25186 38047 ft 453 kts 359°
2026-05-07 18:22 49.99230 11.25451 38042 ft 453 kts 359°
2026-05-07 18:23 50.05527 11.25728 38046 ft 453 kts 359°
2026-05-07 18:23 50.11835 11.26005 38049 ft 453 kts 359°
2026-05-07 18:24 50.18144 11.26299 38041 ft 453 kts 360°
2026-05-07 18:24 50.24454 11.26587 38053 ft 453 kts 360°
2026-05-07 18:25 50.30759 11.27064 38049 ft 454 kts
2026-05-07 18:25 50.37053 11.28238 38053 ft 455 kts
2026-05-07 18:26 50.43296 11.29493 38054 ft 455 kts
2026-05-07 18:26 50.49580 11.30770 38056 ft 455 kts
2026-05-07 18:27 50.55861 11.32049 38063 ft 455 kts
2026-05-07 18:27 50.62146 11.33333 38069 ft 455 kts
2026-05-07 18:28 50.68429 11.34623 38074 ft 455 kts
2026-05-07 18:28 50.74708 11.35915 38066 ft 455 kts
2026-05-07 18:29 50.80999 11.37213 38074 ft 455 kts
2026-05-07 18:29 50.87239 11.38505 38074 ft 455 kts
2026-05-07 18:30 50.93525 11.39816 38076 ft 455 kts
2026-05-07 18:30 50.99808 11.41122 38077 ft 455 kts
2026-05-07 18:31 51.06090 11.42437 38074 ft 455 kts
2026-05-07 18:31 51.12369 11.43755 38077 ft 454 kts
2026-05-07 18:32 51.18642 11.45076 38080 ft 454 kts
2026-05-07 18:32 51.24909 11.46397 38090 ft 454 kts
2026-05-07 18:33 51.31169 11.47719 38085 ft 454 kts
2026-05-07 18:33 51.37435 11.49046 38086 ft 454 kts
2026-05-07 18:34 51.43699 11.50376 38089 ft 454 kts
2026-05-07 18:34 51.49958 11.51706 38090 ft 454 kts
2026-05-07 18:35 51.56227 11.53043 38094 ft 454 kts
2026-05-07 18:35 51.62449 11.54378 38098 ft 454 kts
2026-05-07 18:36 51.68716 11.55724 38099 ft 454 kts
2026-05-07 18:36 51.74979 11.57060 38103 ft 454 kts
2026-05-07 18:37 51.81235 11.58417 38100 ft 454 kts
2026-05-07 18:37 51.87501 11.59778 38102 ft 454 kts
2026-05-07 18:38 51.93761 11.61138 38103 ft 454 kts
2026-05-07 18:38 52.00024 11.62502 38100 ft 454 kts
2026-05-07 18:39 52.06247 11.63861 38100 ft 454 kts
2026-05-07 18:39 52.12507 11.65229 38100 ft 454 kts
2026-05-07 18:40 52.18767 11.66609 38104 ft 454 kts
2026-05-07 18:40 52.25018 11.67988 38097 ft 453 kts
2026-05-07 18:41 52.31283 11.69372 38096 ft 453 kts
2026-05-07 18:41 52.37537 11.70757 38097 ft 453 kts
2026-05-07 18:42 52.43791 11.72146 38102 ft 453 kts
2026-05-07 18:42 52.50040 11.73536 38096 ft 453 kts
2026-05-07 18:43 52.56244 11.74917 38097 ft 453 kts
2026-05-07 18:43 52.62492 11.76321 38097 ft 453 kts
2026-05-07 18:44 52.68744 11.77727 38101 ft 453 kts
2026-05-07 18:44 52.74991 11.79135 38099 ft 453 kts
2026-05-07 18:45 52.81234 11.80546 38100 ft 453 kts
2026-05-07 18:45 52.87479 11.81961 38100 ft 453 kts
2026-05-07 18:46 52.93729 11.83381 38102 ft 453 kts
2026-05-07 18:46 52.99968 11.84804 38102 ft 453 kts
2026-05-07 18:47 53.05159 11.85990 38099 ft 453 kts
2026-05-07 18:47 53.12423 11.87655 38099 ft 453 kts
2026-05-07 18:48 53.18663 11.89090 38105 ft 452 kts
2026-05-07 18:48 53.23862 11.90288 38105 ft 452 kts
2026-05-07 18:49 53.30101 11.91730 38107 ft 452 kts
2026-05-07 18:49 53.36338 11.93177 38108 ft 452 kts
2026-05-07 18:50 53.42578 11.94621 38108 ft 452 kts
2026-05-07 18:50 53.48776 11.96069 37959 ft 452 kts
2026-05-07 18:50 53.51890 11.96799 37691 ft 452 kts
2026-05-07 18:51 53.55004 11.97529 37428 ft 450 kts
2026-05-07 18:51 53.58107 11.98257 37171 ft 449 kts
2026-05-07 18:51 53.61209 11.98986 36866 ft 449 kts
2026-05-07 18:51 53.64304 11.99714 36408 ft 449 kts
2026-05-07 18:52 53.67396 12.00442 35965 ft 447 kts
2026-05-07 18:52 53.70471 12.01167 35524 ft 445 kts
2026-05-07 18:52 53.73495 12.01881 35084 ft 443 kts
2026-05-07 18:52 53.76580 12.02610 34657 ft 441 kts
2026-05-07 18:53 53.79574 12.03319 34242 ft 439 kts
2026-05-07 18:53 53.82590 12.04035 33763 ft 437 kts
2026-05-07 18:53 53.85602 12.04751 33265 ft 436 kts
2026-05-07 18:53 53.88607 12.05466 32777 ft 437 kts
2026-05-07 18:54 53.91620 12.06184 32294 ft 438 kts
2026-05-07 18:54 53.94638 12.06894 31818 ft 438 kts
2026-05-07 18:54 53.97659 12.07617 31363 ft 437 kts
2026-05-07 18:54 54.00660 12.08339 30908 ft 434 kts
2026-05-07 18:55 54.03640 12.09056 30464 ft 431 kts
2026-05-07 18:55 54.06596 12.09767 29996 ft 428 kts
2026-05-07 18:55 54.09543 12.10471 29480 ft 425 kts
2026-05-07 18:55 54.12459 12.11163 28968 ft 422 kts
2026-05-07 18:56 54.15360 12.11847 28465 ft 419 kts
2026-05-07 18:56 54.18200 12.12531 27978 ft 416 kts
2026-05-07 18:56 54.21054 12.13229 27486 ft 413 kts
2026-05-07 18:56 54.23884 12.13922 27013 ft 410 kts
2026-05-07 18:57 54.26702 12.14609 26547 ft 407 kts
2026-05-07 18:57 54.29499 12.15291 26088 ft 404 kts
2026-05-07 18:57 54.32277 12.15967 25637 ft 402 kts
2026-05-07 18:57 54.35045 12.16641 25195 ft 399 kts
2026-05-07 18:58 54.37792 12.17309 24760 ft 397 kts
2026-05-07 18:58 54.40485 12.18016 24335 ft 395 kts 11°
2026-05-07 18:58 54.43133 12.19246 23912 ft 392 kts 17°
2026-05-07 18:58 54.45713 12.20741 23450 ft 390 kts 19°
2026-05-07 18:59 54.48259 12.22302 22952 ft 388 kts 19°
2026-05-07 18:59 54.50779 12.23876 22464 ft 385 kts 19°
2026-05-07 18:59 54.53285 12.25454 21980 ft 382 kts 19°
2026-05-07 18:59 54.55776 12.27030 21512 ft 379 kts 19°
2026-05-07 19:00 54.58243 12.28595 21046 ft 377 kts 19°
2026-05-07 19:00 54.60693 12.30153 20584 ft 374 kts 19°
2026-05-07 19:00 54.63126 12.31702 20131 ft 371 kts 19°
2026-05-07 19:00 54.65545 12.33244 19665 ft 369 kts 19°
2026-05-07 19:01 54.67950 12.34780 19199 ft 367 kts 19°
2026-05-07 19:01 54.70335 12.36306 18752 ft 364 kts 19°
2026-05-07 19:01 54.72706 12.37823 18280 ft 362 kts 19°
2026-05-07 19:01 54.75028 12.39312 17767 ft 360 kts 19°
2026-05-07 19:02 54.77368 12.40814 17261 ft 357 kts 19°
2026-05-07 19:02 54.79686 12.42303 16780 ft 354 kts 20°
2026-05-07 19:02 54.81983 12.43782 16310 ft 351 kts 20°
2026-05-07 19:02 54.84270 12.45254 15854 ft 349 kts 20°
2026-05-07 19:03 54.86539 12.46718 15403 ft 346 kts 20°
2026-05-07 19:03 54.88792 12.48173 14958 ft 344 kts 20°
2026-05-07 19:03 54.91021 12.49614 14514 ft 340 kts 20°
2026-05-07 19:03 54.93227 12.51032 14083 ft 336 kts 20°
2026-05-07 19:04 54.95413 12.52447 13614 ft 333 kts 20°
2026-05-07 19:04 54.97580 12.53850 13124 ft 331 kts 20°
2026-05-07 19:04 54.99729 12.55245 12656 ft 328 kts 20°
2026-05-07 19:04 55.01861 12.56626 12189 ft 326 kts 21°
2026-05-07 19:05 55.03980 12.58009 11723 ft 324 kts 21°
2026-05-07 19:05 55.06089 12.59387 11220 ft 323 kts 21°
2026-05-07 19:05 55.08185 12.60757 10724 ft 321 kts 21°
2026-05-07 19:05 55.10240 12.62101 10227 ft 319 kts 21°
2026-05-07 19:06 55.12312 12.63453 9720 ft 317 kts 21°
2026-05-07 19:06 55.16404 12.66138 8651 ft 311 kts 21°
2026-05-07 19:06 55.18413 12.67460 8205 ft 306 kts 21°
2026-05-07 19:07 55.20377 12.68752 7841 ft 296 kts 21°
2026-05-07 19:07 55.22261 12.69992 7515 ft 281 kts 21°
2026-05-07 19:07 55.24053 12.71171 7220 ft 270 kts 21°
2026-05-07 19:07 55.25801 12.72324 6931 ft 267 kts 21°
2026-05-07 19:08 55.27548 12.73477 6688 ft 269 kts 21°
2026-05-07 19:08 55.29292 12.74629 6432 ft 267 kts 21°
2026-05-07 19:08 55.31023 12.75773 6171 ft 265 kts 21°
2026-05-07 19:08 55.32742 12.76910 5907 ft 263 kts 20°
2026-05-07 19:09 55.34452 12.78042 5671 ft 262 kts 20°
2026-05-07 19:09 55.36152 12.79168 5434 ft 260 kts 20°
2026-05-07 19:09 55.37846 12.80292 5199 ft 259 kts 20°
2026-05-07 19:09 55.39509 12.81396 4976 ft 258 kts 20°
2026-05-07 19:10 55.41185 12.82509 4743 ft 257 kts 20°
2026-05-07 19:10 55.42853 12.83618 4573 ft 256 kts 20°
2026-05-07 19:10 55.44518 12.84726 4407 ft 256 kts 20°
2026-05-07 19:10 55.46179 12.85832 4267 ft 255 kts 20°
2026-05-07 19:11 55.47839 12.86939 4106 ft 255 kts 20°
2026-05-07 19:11 55.49498 12.88046 3999 ft 254 kts 20°
2026-05-07 19:11 55.51153 12.89151 3988 ft 254 kts 20°
2026-05-07 19:11 55.52811 12.90259 3987 ft 254 kts 20°
2026-05-07 19:12 55.54466 12.91363 3994 ft 254 kts 20°
2026-05-07 19:12 55.56102 12.92449 3960 ft 255 kts 20°
2026-05-07 19:12 55.57759 12.93562 3746 ft 254 kts 20°
2026-05-07 19:12 55.59404 12.94670 3570 ft 252 kts 20°
2026-05-07 19:13 55.61039 12.95771 3438 ft 251 kts 20°
2026-05-07 19:13 55.62671 12.96870 3310 ft 251 kts 20°
2026-05-07 19:13 55.64312 12.97970 3177 ft 253 kts 20°
2026-05-07 19:13 55.65960 12.99069 3047 ft 253 kts 19°
2026-05-07 19:14 55.67663 12.99677 3003 ft 251 kts 359°
2026-05-07 19:14 55.69354 12.99030 2789 ft 250 kts 335°
2026-05-07 19:14 55.70766 12.97267 2637 ft 248 kts 318°
2026-05-07 19:14 55.71953 12.95213 2512 ft 230 kts 315°
2026-05-07 19:15 55.72838 12.92884 2384 ft 231 kts 289°
2026-05-07 19:15 55.72934 12.90096 2258 ft 229 kts 262°
2026-05-07 19:15 55.72581 12.87478 2132 ft 210 kts 256°
2026-05-07 19:15 55.72177 12.85047 2017 ft 200 kts 255°
2026-05-07 19:16 55.71787 12.82752 2005 ft 190 kts 255°
2026-05-07 19:16 55.71394 12.80518 1991 ft 189 kts 251°
2026-05-07 19:16 55.70751 12.78480 1994 ft 191 kts 231°
2026-05-07 19:16 55.69705 12.77045 1987 ft 193 kts 211°
2026-05-07 19:17 55.68548 12.75858 1802 ft 192 kts 213°
2026-05-07 19:17 55.67503 12.74499 1533 ft 179 kts 222°
2026-05-07 19:17 55.66617 12.73079 1218 ft 167 kts 224°
2026-05-07 19:17 55.65773 12.71722 835 ft 161 kts 221°
2026-05-07 19:18 55.64938 12.70469 577 ft 156 kts 221°
2026-05-07 19:18 55.64138 12.69188 415 ft 154 kts 222°
2026-05-07 19:18 55.63335 12.67985 273 ft 145 kts 221°
2026-05-07 19:18 55.62598 12.66846 57 ft 135 kts 221°
2026-05-07 19:19 55.61945 12.65829 25 ft 112 kts 221°
2026-05-07 19:19 55.61607 12.65307 19 ft 41 kts 220°
2026-05-07 19:19 55.61400 12.64989 28 ft 37 kts 221°
2026-05-07 19:19 55.61263 12.64674 27 ft 31 kts 249°
2026-05-07 19:20 55.61226 12.64483 22 ft 0 kts 253°
2026-05-07 19:21 55.61225 12.64476 22 ft 1 kts 253°
2026-05-07 19:21 55.61210 12.64391 22 ft 15 kts 252°
2026-05-07 19:21 55.61199 12.64153 20 ft 24 kts 307°
2026-05-07 19:21 55.61356 12.64195 21 ft 30 kts 34°
2026-05-07 19:22 55.61555 12.64424 23 ft 37 kts 33°
2026-05-07 19:22 55.61760 12.64664 23 ft 26 kts 32°
2026-05-07 19:22 55.61905 12.64830 21 ft 9 kts 33°
2026-05-07 19:22 55.61956 12.64888 24 ft 7 kts 32°
2026-05-07 19:23 55.61996 12.64933 24 ft 9 kts 33°
2026-05-07 19:23 55.62076 12.65025 26 ft 18 kts 33°
2026-05-07 19:23 55.62197 12.65162 27 ft 23 kts 28°
2026-05-07 19:23 55.62322 12.65196 26 ft 10 kts 358°
2026-05-07 19:24 55.62412 12.65194 25 ft 15 kts 18°
2026-05-07 19:24 55.62439 12.65336 22 ft 13 kts 89°
2026-05-07 19:24 55.62475 12.65441 21 ft 7 kts 21°
2026-05-07 19:24 55.62514 12.65468 21 ft 0 kts 22°